Location: Newark
(28.1667°N, 17.3333°W)
Time: 10:37:02
(UTC+00:00)

N. Korean satellite - Visible Passes

Search period start: 21 February 2019 00:00
Search period end: 03 March 2019 00:00
Orbit: 456 x 510 km, 97.2° (Epoch: 20 February)

Date Brightness Start Highest point End Pass type
(mag) Time Alt. Az. Time Alt. Az. Time Alt. Az.
21 Feb 9.9 19:26:44 10° SSW 19:29:32 20° W 19:32:19 10° NW visible
22 Feb 7.6 06:59:19 10° NNE 07:02:38 48° E 07:05:57 10° S visible
23 Feb 9.5 06:35:16 10° NE 06:37:51 20° E 06:40:25 10° SE visible
24 Feb 10.7 19:47:53 10° WSW 19:48:47 11° W 19:49:42 10° W visible
26 Feb 8.1 06:53:48 10° NNE 06:57:02 39° E 07:00:16 10° S visible
27 Feb 9.8 06:29:56 10° NE 06:32:13 17° E 06:34:30 10° SE visible
28 Feb 10.4 19:41:32 10° WSW 19:43:11 13° W 19:44:50 10° WNW visible
02 Mar 8.5 06:48:16 10° NNE 06:51:24 32° E 06:54:31 10° SSE visible
